Location: McFarlands Corners
(41.4117°N, 81.3382°W)
Time: 02:50:12
(UTC+00:00)

Transit 4A - Pass Details

Date: 23 February 2026
Orbit: 864 x 977 km, 66.8° (Epoch: 7 March)

Event Time Altitude Azimuth Distance (km) Brightness Sun altitude
Rises 18:50:10 0° 307° (NW) 3,643 10.9 36.4°
Reaches altitude 10° 18:55:26 10° 270° (W) 2,711 10.7 36.0°
Maximum altitude 18:56:32 10° 260° (W) 2,678 10.8 35.9°
Drops below altitude 10° 18:57:37 10° 250° (WSW) 2,714 11.0 35.8°
Sets 19:02:56 0° 213° (SSW) 3,662 12.0 35.4°
